[ hide orbit diagram ]
For accurate long-term ephemerides, please instead use our Horizons system.This orbit viewer was implemented using two-body methods, and hence should not be used for determining accurate long-term trajectories (over several years or decades) or planetary encounter circumstances.
Orbital Elements at Epoch 2459200.5 (2020-Dec-17.0) TDB
Reference: JPL 17 (heliocentric ecliptic J2000)
Element | Value | Uncertainty (1-sigma) | Units |
e | .1684177713533824 | 3.5891e-08 | |
a | 2.358016384427017 | 1.111e-08 | au |
q | 1.960884520147059 | 8.7291e-08 | au |
i | 1.570602456150755 | 4.7991e-06 | deg |
node | 243.9207703172195 | 0.00017016 | deg |
peri | 62.49482204999817 | 0.00017101 | deg |
M | 17.55049285610922 | 1.5971e-05 | deg |
tp | 2459136.022903747640 (2020-Oct-13.52290375) | 5.8607e-05 | TDB |
period | 1322.56996092105 3.62 | 9.3468e-06 2.559e-08 | d yr |
n | .2721973208504544 | 1.9237e-09 | deg/d |
Q | 2.755148248706976 | 1.2981e-08 | au |
|
| | Orbit Determination Parameters
Additional Information
|
[ hide covariance matrix ]
Orbital Elements at Epoch 2457048.5 (2015-Jan-26.0) TDB
Reference: JPL 17 (heliocentric ecliptic J2000)
Element | Value | Uncertainty (1-sigma) | Units |
e | .1683349144938442 | 3.5965e-08 | |
q | 1.961132025639551 | 8.7337e-08 | au |
tp | 2456489.558070269015 (2013-Jul-16.05807027) | 5.8684e-05 | TDB |
node | 244.1582788709474 | 0.00017017 | deg |
peri | 62.02993085769757 | 0.00017101 | deg |
i | 1.570732841740466 | 4.7963e-06 | deg |
|
| | Orbit Determination Parameters
Additional Information
|
Orbit Covariance (6×6)
|
|
e |
q |
tp |
node |
peri |
i |
e |
1.293513845040474E-15 |
-3.124812463860118E-15 |
3.05233796679109E-13 |
1.350799131935506E-14 |
6.291099143522434E-14 |
-3.816546767884182E-16 |
q |
-3.124812463860118E-15 |
7.627738901969565E-15 |
-8.004563377876832E-13 |
-3.420493325748413E-14 |
-1.577437695863599E-13 |
1.032033451441933E-15 |
tp |
3.05233796679109E-13 |
-8.004563377876832E-13 |
3.443865086161063E-9 |
-3.94332449599931E-11 |
1.013850938547135E-9 |
3.574343747055608E-13 |
node |
1.350799131935506E-14 |
-3.420493325748413E-14 |
-3.94332449599931E-11 |
2.895726729592224E-8 |
-2.895676243332728E-8 |
-2.147194272083504E-10 |
peri |
6.291099143522434E-14 |
-1.577437695863599E-13 |
1.013850938547135E-9 |
-2.895676243332728E-8 |
2.924442416960093E-8 |
2.147462361391138E-10 |
i |
-3.816546767884182E-16 |
1.032033451441933E-15 |
3.574343747055608E-13 |
-2.147194272083504E-10 |
2.147462361391138E-10 |
2.300445304654012E-11 |
|
Physical Parameter Table
Parameter |
Symbol |
Value |
Units |
Sigma |
Reference |
Notes |
absolute magnitude |
H |
16.69 |
|
n/a |
E2021B55 |
|
|
173319 (1999 VX69) Discovered 1999-Nov-04 by LINEAR at Socorro |
Reference: 20080122/Numbers.arc | Last Updated: 2008-01-28 |
|
[ hide close-approach data ]
Close-Approach Data ...sorted by Date/Time (TDB)
|
Date/Time (TDB) |
Time Uncertainty (days_HH:MM) |
Body |
Nominal Distance (au) |
Minimum Distance (au) |
Maximum Distance (au) |
V-relative (km/s) |
V-infinity (km/s) |
JD (TDB) |
Time Uncertainty (minutes) |
Semi-major axis (km) |
Semi-minor axis (km) |
range-LOV angle (deg) |
N-sigma |
BP |
Orbit Ref. |
Reference |
Modified |
1932-Jul-22 14:26 |
< 00:01 |
Juno |
0.0355562285112368 |
0.0355501246047834 |
0.035562337818055 |
7.74444543075161 |
7.74444538657016 |
2426911.101276996 |
0.537683695730817 |
766.213222551063 |
56.7282520275107 |
-66.9551251951823 |
86300.9456074842 |
T |
17 |
CATAB v2.0f-lin.ifort 2020-Nov-12 10:22:40 |
2020-Nov-12 10:22 |
2124-Jun-25 21:19 |
< 00:01 |
Juno |
0.0373781422583508 |
0.0373574115748094 |
0.0373988752146106 |
7.9132451269845 |
7.91324508585308 |
2497011.388439110 |
0.487522581494568 |
1131.39709568744 |
56.0087893253839 |
24.0326073949747 |
40896.3942008086 |
T |
17 |
CATAB v2.0f-lin.ifort 2020-Nov-12 10:22:40 |
2020-Nov-12 10:22 |
|
|